Location: G�kdere
(37.0328°N, 30.9000°E)
Time: 02:16:59
(UTC+00:00)

Cosmos 44 Rocket - Pass Details

Date: 03 March 2021
Orbit: 636 x 754 km, 65.1° (Epoch: 22 April)

Event Time Altitude Azimuth Distance (km) Brightness Sun altitude
Rises 16:43:40 0° 333° (NNW) 3,209 7.1 -11.0°
Reaches altitude 10° 16:46:07 10° 338° (NNW) 2,282 6.3 -11.5°
Maximum altitude 16:51:17 58° 57° (ENE) 869 3.5 -12.5°
Drops below altitude 10° 16:56:22 10° 137° (SE) 2,243 5.5 -13.5°
Enters shadow 16:56:38 - 138° (SE) 2,346 5.6 -13.6°
